Bloomington, IN

8:53 PM EDT on May 23, 2017 (GMT -0400)
Monroe County

Weather History for KBMG - February, 2014

Change the Weather History Date:

Sunday, February 23, 2014

  Actual Average Record
Temperature  
Mean Temperature 31 °F 35 °F  
Max Temperature 38 °F 46 °F 71 °F (2017)
Min Temperature 24 °F 25 °F -8 °F (2015)
Degree Days  
Heating Degree Days 34 30  
Month to date heating degree days 905 750  
Since 1 July heating degree days 4347 3925  
Cooling Degree Days 0 0  
Month to date cooling degree days 0 0  
Year to date cooling degree days 0 0  
Moisture  
Dew Point 23 °F    
Average Humidity 60    
Maximum Humidity 82    
Minimum Humidity 38    
Precipitation  
Precipitation 0.01 in 0.09 in 0.15 in (2016)
Month to date precipitation 2.33 2.36  
Year to date precipitation 4.65 5.67  
Sea Level Pressure  
Sea Level Pressure 30.14 in    
Wind  
Wind Speed 7 mph (North)    
Max Wind Speed 17 mph    
Max Gust Speed 20 mph    
Visibility 8 miles    
Events Rain , Snow    
T = Trace of Precipitation, MM = Missing Value Source: NWS Daily Summary

Daily Weather History Graph

Daily Weather History Graph

Search for Another Location

Airport or City:

Trip Planner

Search our weather history database for the weather conditions in past years. The results will help you decide how hot, cold, wet, or windy it might be!

Date:

Astronomy

Feb. 23, 2014 Rise Set
Actual Time 7:27 AM EST 6:32 PM EST
Civil Twilight 7:00 AM EST 6:59 PM EST
Nautical Twilight 6:29 AM EST 7:30 PM EST
Astronomical Twilight 5:58 AM EST 8:01 PM EST
Moon 2:24 AM EST (2/23) 12:35 PM EST (2/23)
Length of Visible Light 11h 59m
Length of Day
11h 05m
Last Quarter, 39% of the Moon is Illuminated
Feb 23
Last Quarter
Mar 1
New
Mar 8
First Quarter
Mar 16
Full
Mar 23
Last Quarter

Hourly Weather History & Observations

Time (EST) Temp. Windchill Dew Point Humidity Pressure Visibility Wind Dir Wind Speed Gust Speed Precip Events Conditions
12:53 AM 37.0 °F 33.3 °F 30.0 °F 76% 30.04 in 10.0 mi ENE 4.6 mph - N/A   Overcast
1:53 AM 37.0 °F 34.5 °F 30.0 °F 76% 30.04 in 10.0 mi NE 3.5 mph - N/A   Clear
2:53 AM 37.0 °F 34.5 °F 30.9 °F 79% 30.04 in 10.0 mi ENE 3.5 mph - N/A   Overcast
3:53 AM 36.0 °F 31.1 °F 28.9 °F 76% 30.02 in 10.0 mi SE 5.8 mph - N/A   Overcast
4:34 AM 34.0 °F 31.0 °F 28.9 °F 82% 30.03 in 10.0 mi NNE 3.5 mph - N/A   Mostly Cloudy
4:53 AM 35.1 °F - 28.9 °F 78% 30.04 in 10.0 mi Calm Calm - N/A   Overcast
5:53 AM 36.0 °F 30.3 °F 30.0 °F 79% 30.05 in 10.0 mi NE 6.9 mph - N/A   Overcast
6:53 AM 35.1 °F 27.4 °F 30.9 °F 85% 30.09 in 9.0 mi North 10.4 mph - N/A   Overcast
7:02 AM 34.0 °F 27.2 °F 30.9 °F 89% 30.07 in 9.0 mi North 8.1 mph - N/A   Overcast
7:19 AM 34.0 °F 27.2 °F 30.9 °F 89% 30.10 in 8.0 mi North 8.1 mph - 0.00 in   Overcast
7:53 AM 33.1 °F 23.0 °F 28.9 °F 85% 30.14 in 9.0 mi North 15.0 mph 19.6 mph 0.00 in Rain Light Rain
8:09 AM 32.0 °F 23.6 °F 27.0 °F 82% 30.13 in 10.0 mi North 10.4 mph 17.3 mph 0.00 in Rain Light Rain
8:30 AM 30.9 °F 20.2 °F 25.0 °F 79% 30.14 in 3.0 mi North 15.0 mph - 0.01 in Snow Light Snow
8:38 AM 30.9 °F 21.7 °F 25.0 °F 79% 30.14 in 2.0 mi North 11.5 mph - 0.01 in Snow Light Snow
8:45 AM 30.9 °F 21.7 °F 26.1 °F 82% 30.15 in 1.5 mi North 11.5 mph - 0.01 in Snow Light Snow
8:53 AM 30.0 °F 21.1 °F 26.1 °F 85% 30.17 in 0.8 mi North 10.4 mph - 0.01 in Snow Light Snow
9:08 AM 30.0 °F 22.4 °F 26.1 °F 85% 30.16 in 1.2 mi North 8.1 mph - 0.00 in Snow Light Snow
9:21 AM 30.9 °F 25.2 °F 27.0 °F 85% 30.14 in 3.0 mi NNE 5.8 mph - 0.00 in Snow Light Snow
9:53 AM 32.0 °F 25.6 °F 26.1 °F 79% 30.16 in 9.0 mi North 6.9 mph - 0.00 in   Overcast
10:53 AM 33.1 °F 27.7 °F 23.0 °F 66% 30.17 in 10.0 mi NNW 5.8 mph - N/A   Overcast
11:53 AM 35.1 °F 32.2 °F 21.9 °F 59% 30.14 in 10.0 mi NE 3.5 mph - N/A   Overcast
12:53 PM 36.0 °F 29.0 °F 21.0 °F 55% 30.17 in 10.0 mi North 9.2 mph - N/A   Mostly Cloudy
1:53 PM 34.0 °F 25.5 °F 19.9 °F 56% 30.16 in 10.0 mi North 11.5 mph - N/A   Overcast
2:53 PM 35.1 °F 27.9 °F 18.0 °F 50% 30.17 in 10.0 mi North 9.2 mph - N/A   Overcast
3:53 PM 35.1 °F 26.9 °F 17.1 °F 48% 30.16 in 10.0 mi North 11.5 mph - N/A   Mostly Cloudy
4:53 PM 35.1 °F 25.5 °F 12.0 °F 39% 30.18 in 10.0 mi North 15.0 mph - N/A   Clear
5:53 PM 32.0 °F 22.1 °F 12.0 °F 44% 30.20 in 10.0 mi North 13.8 mph - N/A   Clear
6:53 PM 30.0 °F 21.1 °F 10.9 °F 45% 30.22 in 10.0 mi North 10.4 mph - N/A   Partly Cloudy
7:53 PM 28.0 °F 24.2 °F 10.0 °F 47% 30.23 in 10.0 mi NNW 3.5 mph - N/A   Clear
8:53 PM 27.0 °F 23.0 °F 10.9 °F 51% 30.24 in 10.0 mi NNW 3.5 mph - N/A   Clear
9:53 PM 26.1 °F 21.9 °F 9.0 °F 49% 30.26 in 10.0 mi Variable 3.5 mph - N/A   Clear
10:53 PM 25.0 °F 19.3 °F 10.0 °F 53% 30.27 in 10.0 mi NW 4.6 mph - N/A   Partly Cloudy
11:53 PM 24.1 °F 16.0 °F 12.0 °F 60% 30.27 in 10.0 mi NW 6.9 mph - N/A   Clear